Tracking 28052 objects as of 24-Sep-2023
HD Live streaming from Space Station
objects crossing your sky now

THORAD DELTA 1 DEB

Track THORAD DELTA 1 DEB now!
10-day predictions


NORAD ID: 8566
Int'l Code: 1974-089DD
Perigee: 1,333.0 km
Apogee: 1,468.9 km
Inclination: 101.5 °
Period: 113.6 minutes
Semi major axis: 7771 km
RCS: 0.0546 m2 (small)
Launch date: November 15, 1974
Source: United States (US)
Launch site: AIR FORCE WESTERN TEST RANGE (AFWTR)

Note: This is SATELLITE DEBRIS
Your satellite tracking list
Your tracking list is empty




NASA's NSSDC Master Catalog

Two Line Element Set (TLE):
1 08566U 74089DD  23267.12871043 -.00000090  00000-0 -23057-3 0  9990
2 08566 101.4516 342.3446 0087442 263.0328 124.5225 12.67084343172582
Source of the keplerian elements: AFSPC